Weather History for KBWG - December, 2013

Change the Weather History Date:

Tuesday, December 24, 2013

  Actual Average Record
Temperature  
Mean Temperature 24 °F 37 °F  
Max Temperature 29 °F 46 °F 73 °F (1964)
Min Temperature 19 °F 28 °F -6 °F (1989)
Degree Days  
Heating Degree Days 41 28  
Month to date heating degree days 586 617  
Since 1 July heating degree days 1466 1380  
Cooling Degree Days 0 0  
Month to date cooling degree days 2 0  
Year to date cooling degree days 1501 1491  
Moisture  
Dew Point 12 °F    
Average Humidity 54    
Maximum Humidity 69    
Minimum Humidity 38    
Precipitation  
Precipitation T in 0.15 in 2.02 in (1988)
Month to date precipitation 4.54 3.84  
Year to date precipitation 59.19 48.93  
Snow  
Snow T in 0.00 in 7.00 in (1912)
Month to date snowfall 0.1 0.7  
Since 1 July snowfall 1.2 0.7  
Snow Depth 0.00 in    
Sea Level Pressure  
Sea Level Pressure 30.54 in    
Wind  
Wind Speed 5 mph (NNW)    
Max Wind Speed 14 mph    
Max Gust Speed 21 mph    
Visibility 10 miles    
Events      
T = Trace of Precipitation, MM = Missing Value Source: NWS Daily Summary

Daily Weather History Graph

Daily Weather History Graph

Search for Another Location

Airport or City:

Trip Planner

Search our weather history database for the weather conditions in past years. The results will help you decide how hot, cold, wet, or windy it might be!

Date:

Astronomy

Dec. 24, 2013 Rise Set
Actual Time 6:56 AM CST 4:34 PM CST
Civil Twilight 6:27 AM CST 5:03 PM CST
Nautical Twilight 5:55 AM CST 5:35 PM CST
Astronomical Twilight 5:23 AM CST 6:07 PM CST
Moon 11:32 PM CST (12/24) 10:59 AM CST (12/24)
Length of Visible Light 10h 35m
Length of Day
9h 37m
Waning Gibbous, 58% of the Moon is Illuminated
Dec 24
Waning Gibbous
Dec 25
Last Quarter
Jan 1
New
Jan 7
First Quarter
Jan 15
Full

Hourly Weather History & Observations

Time (CST) Temp. Windchill Dew Point Humidity Pressure Visibility Wind Dir Wind Speed Gust Speed Precip Events Conditions
12:53 AM 28.0 °F 21.7 °F 19.0 °F 69% 30.46 in 10.0 mi NNW 5.8 mph - N/A   Overcast
1:53 AM 28.0 °F 21.7 °F 19.9 °F 72% 30.47 in 10.0 mi NW 5.8 mph - N/A   Overcast
2:09 AM 28.0 °F 20.8 °F 18.0 °F 66% 30.46 in 10.0 mi NW 6.9 mph - N/A   Overcast
2:53 AM 28.0 °F 20.8 °F 18.0 °F 66% 30.48 in 10.0 mi NW 6.9 mph - N/A   Overcast
3:53 AM 27.0 °F 18.7 °F 17.1 °F 66% 30.48 in 10.0 mi NW 8.1 mph - N/A   Overcast
4:53 AM 27.0 °F 17.3 °F 17.1 °F 66% 30.50 in 10.0 mi WNW 10.4 mph - N/A   Overcast
5:53 AM 26.1 °F 16.2 °F 17.1 °F 69% 30.52 in 10.0 mi NNW 10.4 mph - N/A   Overcast
6:37 AM 24.1 °F 14.4 °F 15.1 °F 69% 30.52 in 10.0 mi NNW 9.2 mph 18.4 mph 0.00 in   Overcast
6:53 AM 23.0 °F 11.7 °F 14.0 °F 68% 30.55 in 10.0 mi NNW 11.5 mph 18.4 mph 0.00 in   Overcast
7:14 AM 21.9 °F 11.7 °F 12.0 °F 66% 30.54 in 10.0 mi NNW 9.2 mph - N/A   Overcast
7:53 AM 19.9 °F 9.3 °F 10.9 °F 68% 30.59 in 10.0 mi NW 9.2 mph - N/A   Mostly Cloudy
8:23 AM 19.9 °F 10.1 °F 10.0 °F 65% 30.59 in 10.0 mi NW 8.1 mph - N/A   Scattered Clouds
8:53 AM 21.0 °F 11.4 °F 10.9 °F 65% 30.62 in 10.0 mi NW 8.1 mph - N/A   Mostly Cloudy
9:17 AM 21.0 °F 12.4 °F 9.0 °F 60% 30.61 in 10.0 mi NW 6.9 mph - N/A   Scattered Clouds
9:53 AM 21.9 °F 12.5 °F 10.0 °F 60% 30.62 in 10.0 mi NNW 8.1 mph - N/A   Clear
10:53 AM 24.1 °F 17.0 °F 7.0 °F 48% 30.62 in 10.0 mi Variable 5.8 mph - N/A   Clear
11:53 AM 26.1 °F 18.4 °F 9.0 °F 49% 30.59 in 10.0 mi Variable 6.9 mph - N/A   Clear
12:53 PM 27.0 °F - 6.1 °F 41% 30.58 in 10.0 mi Calm Calm - N/A   Clear
1:53 PM 26.1 °F - 6.1 °F 43% 30.56 in 10.0 mi Calm Calm - N/A   Clear
2:53 PM 28.0 °F 22.8 °F 6.1 °F 39% 30.56 in 10.0 mi East 4.6 mph - N/A   Clear
3:53 PM 27.0 °F 23.0 °F 5.0 °F 39% 30.56 in 10.0 mi East 3.5 mph - N/A   Clear
4:53 PM 24.1 °F 18.2 °F 8.1 °F 51% 30.55 in 10.0 mi East 4.6 mph - N/A   Clear
5:53 PM 24.1 °F - 8.1 °F 51% 30.55 in 10.0 mi Calm Calm - N/A   Clear
6:53 PM 21.9 °F - 9.0 °F 58% 30.56 in 10.0 mi Calm Calm - N/A   Clear
7:53 PM 19.9 °F 14.9 °F 10.0 °F 65% 30.54 in 10.0 mi NE 3.5 mph - N/A   Clear
8:53 PM 19.9 °F - 10.0 °F 65% 30.51 in 10.0 mi Calm Calm - N/A   Clear
9:53 PM 19.9 °F 14.9 °F 10.9 °F 68% 30.51 in 10.0 mi East 3.5 mph - N/A   Clear
10:53 PM 19.9 °F 14.9 °F 10.9 °F 68% 30.50 in 10.0 mi East 3.5 mph - N/A   Clear
11:53 PM 19.0 °F - 10.9 °F 71% 30.48 in 10.0 mi Calm Calm - N/A   Clear